Погода в Синеве

Украина / Ровненская область     50°37′21″N   26°45′05″E
темп.,
°C
ветер,
м/с
пор.,
м/с
влажн.,
%
обл.,
%
осадки,
мм/ч
давл.,
гПа
погр.,
м
20 апреля, вт
вт2000:00+5всв348827 0.0 101664
03:00+4св338989 0.0 101540
06:00+5ссв2389100 0.0 101456
09:00+7ссв348197 0.1 1013320
12:00+11ссв446257 1.1 10121314
15:00+12с455598 2.0 10111672
18:00+10с466722 0.1 1010701
21:00+7ссз3579100 0.1 101193
21 апреля, ср
ср2100:00+6ссз238759 0.0 101251
03:00+4зсз339159 0.0 101134
06:00+4з2389100 0.0 101257
09:00+7зюз3478100 0.0 1012292
12:00+11з4669100 0.4 10111050
15:00+13зсз6754100 1.8 10111735
18:00+13з4664100 1.1 10111147
21:00+9зюз4983100 2.3 1012298
22 апреля, чт
чт2200:00+9юз4986100 0.1 1012229
03:00+7зюз410935 0.2 1013277
06:00+6ююз499421 0.0 1013183
09:00+10юз588077 0.0 1014441
12:00+14зюз556227 1.5 10141240
15:00+13ююз677097 2.6 1013912
18:00+14юз7116882 0.5 10121164
21:00+7з3493100 1.0 101584
23 апреля, пт
пт2300:00+7зсз2592100 0.1 1016406
03:00+6ссз4584100 0.3 1016644
06:00+5зсз2686100 1.1 1016669
09:00+5зюз3477100 1.8 1017676
12:00+7з4768100 0.3 10171335
15:00+10з794988 0.7 10172157
18:00+9зсз610575 0.3 10172046
21:00+5з5107274 0.1 1019336
24 апреля, сб
сб2400:00+3з512815 0.0 1020377
03:00+2з410895 0.0 1021342
06:00+1зсз4109588 0.0 1021359
09:00+4зсз58625 0.0 1022794
12:00+7сз45411 0.0 10211598
15:00+9з45395 0.0 10201866
18:00+10зюз474573 0.0 10181851
21:00+6з51169100 0.1 1018352